Location: Hastringsfeld
(50.9620°N, 10.4787°E)
Time: 03:16:51
(UTC+00:00)

Cosmos 1898 Rocket - Pass Details

Date: 26 September 2023
Orbit: 753 x 781 km, 74.0° (Epoch: 29 November)

Event Time Altitude Azimuth Distance (km) Brightness Sun altitude
Exits shadow 02:50:24 51° 232° (SW) 975 3.6 -22.0°
Maximum altitude 02:51:40 71° 296° (WNW) 825 3.5 -21.8°
Drops below altitude 10° 02:57:00 10° 21° (NNE) 2,348 6.7 -21.1°
Sets 02:59:25 0° 24° (NNE) 3,281 7.5 -20.7°
